Terminal Aerodrome Forecast
Issued by NWS

Home | Current Version | Previous Version | Text Only | Print | Product List | Glossary On
Versions: 1 2 3 4 5 6 7 8 9 10 11 12
000
FTUS45 KRIW 290523
TAFCOD
TAF
KCOD 290523Z 2906/3006 23006KT P6SM SKC
     FM291400 22011KT P6SM FEW110 SCT200
     FM292000 14008KT P6SM VCSH SCT080 BKN150
     FM300000 VRB08G15KT P6SM VCTS SCT070CB BKN100
     FM300400 24011KT P6SM SCT100
      AMD LTD TO CLD VIS AND WIND=

USA.gov is the U.S. government's official web portal to all federal, state and local government web resources and services.